| time (UTC) | temp F | wind direction | speed knots | gust knots | rain 1hr in | rain 24hr in | rain mn in | humidity % | barometer mb |
| 20260506024204 | 51 | 248 | 0.0 | 0.0 | 0.00 | 0.00 | 0.00 | 91 | 1004.3 |
| 20260506023200 | 51 | 248 | 0.0 | 0.0 | 0.00 | 0.00 | 0.00 | 91 | 1004.3 |
| 20260506022640 | 51 | 248 | 0.0 | 0.0 | 0.00 | 0.00 | 0.00 | 91 | 1004.3 |
| 20260506021202 | 52 | 248 | 0.0 | 0.0 | 0.00 | 0.00 | 0.00 | 91 | 1004.3 |
| 20260506020202 | 52 | 248 | 0.0 | 0.0 | 0.00 | 0.00 | 0.00 | 91 | 1004.4 |
| 20260506015202 | 52 | 248 | 0.0 | 0.0 | 0.00 | 0.00 | 0.00 | 91 | 1004.4 |
| 20260506014210 | 53 | 248 | 0.0 | 0.0 | 0.00 | 0.00 | 0.00 | 90 | 1004.6 |
| 20260506013200 | 53 | 248 | 0.0 | 0.0 | 0.00 | 0.00 | 0.00 | 90 | 1004.6 |
| 20260506012200 | 53 | 248 | 0.0 | 0.0 | 0.00 | 0.00 | 0.00 | 90 | 1004.7 |
| 20260506011200 | 53 | 248 | 0.0 | 0.0 | 0.00 | 0.00 | 0.00 | 90 | 1004.9 |
| 20260506010158 | 53 | 248 | 0.0 | 0.0 | 0.00 | 0.00 | 0.00 | 90 | 1004.9 |
| 20260506005202 | 53 | 248 | 0.0 | 0.0 | 0.00 | 0.00 | 0.00 | 91 | 1005.0 |
| 20260506004201 | 53 | 248 | 0.0 | 0.0 | 0.00 | 0.00 | 0.00 | 91 | 1005.0 |
| 20260506003202 | 53 | 248 | 0.0 | 0.0 | 0.00 | 0.00 | 0.00 | 91 | 1004.9 |
| 20260506002157 | 53 | 248 | 0.0 | 0.0 | 0.00 | 0.00 | 0.00 | 90 | 1005.1 |
| 20260506001158 | 53 | 248 | 0.0 | 0.0 | 0.00 | 0.00 | 0.00 | 90 | 1005.0 |
| 20260506000200 | 54 | 248 | 0.0 | 0.0 | 0.00 | 0.00 | 0.00 | 90 | 1005.1 |
| 20260505235157 | 54 | 248 | 0.0 | 0.0 | 0.00 | 0.00 | 0.00 | 89 | 1005.1 |
| 20260505234157 | 54 | 248 | 0.0 | 0.0 | 0.00 | 0.00 | 0.00 | 90 | 1005.2 |
| 20260505233156 | 55 | 248 | 0.0 | 0.0 | 0.00 | 0.00 | 0.00 | 90 | 1005.3 |
| 20260505232156 | 55 | 248 | 0.0 | 0.0 | 0.00 | 0.00 | 0.00 | 90 | 1005.3 |
| 20260505231156 | 55 | 248 | 0.0 | 0.0 | 0.00 | 0.00 | 0.00 | 91 | 1005.3 |
| 20260505230156 | 55 | 248 | 0.0 | 0.9 | 0.00 | 0.00 | 0.00 | 91 | 1005.3 |
| 20260505225155 | 55 | 248 | 0.0 | 0.0 | 0.00 | 0.00 | 0.00 | 91 | 1005.4 |
| 20260505224159 | 55 | 248 | 0.0 | 0.0 | 0.00 | 0.00 | 0.00 | 91 | 1005.5 |
| 20260505223157 | 55 | 248 | 0.0 | 0.0 | 0.00 | 0.00 | 0.00 | 91 | 1005.4 |
| 20260505222157 | 56 | 248 | 0.0 | 0.0 | 0.00 | 0.00 | 0.00 | 91 | 1005.5 |
| 20260505221156 | 56 | 248 | 0.0 | 0.0 | 0.00 | 0.00 | 0.00 | 91 | 1005.5 |
| 20260505220551 | 56 | 248 | 0.0 | 0.0 | 0.00 | 0.00 | 0.00 | 91 | 1005.4 |
| 20260505220324 | 56 | 248 | 0.0 | 0.0 | 0.00 | 0.00 | 0.00 | 92 | 1005.4 |
| 20260505214154 | 56 | 248 | 0.0 | 0.0 | 0.00 | 0.00 | 0.00 | 91 | 1005.5 |
| 20260505213153 | 56 | 248 | 0.0 | 0.0 | 0.00 | 0.00 | 0.00 | 91 | 1005.5 |
| 20260505212154 | 56 | 248 | 0.0 | 0.0 | 0.00 | 0.00 | 0.00 | 91 | 1005.5 |
| 20260505211155 | 56 | 248 | 0.0 | 0.0 | 0.00 | 0.00 | 0.00 | 91 | 1005.5 |
| 20260505210635 | 56 | 248 | 0.0 | 0.0 | 0.00 | 0.00 | 0.00 | 91 | 1005.7 |
| 20260505205152 | 56 | 248 | 0.0 | 0.0 | 0.00 | 0.00 | 0.00 | 91 | 1005.6 |
| 20260505204152 | 57 | 248 | 0.0 | 0.0 | 0.00 | 0.00 | 0.00 | 91 | 1005.6 |
| 20260505203152 | 57 | 248 | 0.0 | 0.0 | 0.00 | 0.00 | 0.00 | 90 | 1005.7 |
| 20260505202634 | 57 | 248 | 0.0 | 0.0 | 0.00 | 0.00 | 0.00 | 90 | 1005.7 |
| 20260505201626 | 57 | 248 | 0.0 | 0.0 | 0.00 | 0.00 | 0.00 | 90 | 1005.7 |
| 20260505200637 | 57 | 248 | 0.0 | 0.0 | 0.00 | 0.00 | 0.00 | 90 | 1005.7 |
| 20260505195152 | 57 | 248 | 0.0 | 0.0 | 0.00 | 0.00 | 0.00 | 89 | 1005.8 |
| 20260505194154 | 57 | 248 | 0.0 | 0.0 | 0.00 | 0.00 | 0.00 | 89 | 1005.6 |
| 20260505193632 | 57 | 248 | 0.0 | 0.0 | 0.00 | 0.00 | 0.00 | 89 | 1005.6 |
| 20260505192154 | 57 | 248 | 0.0 | 0.0 | 0.00 | 0.00 | 0.00 | 89 | 1005.6 |
| 20260505191155 | 57 | 248 | 0.0 | 0.0 | 0.00 | 0.00 | 0.00 | 88 | 1005.4 |
| 20260505190152 | 58 | 248 | 0.0 | 0.0 | 0.00 | 0.00 | 0.00 | 88 | 1005.5 |
| 20260505185152 | 58 | 248 | 0.0 | 0.0 | 0.00 | 0.00 | 0.00 | 89 | 1005.4 |
| 20260505184153 | 58 | 248 | 0.0 | 0.0 | 0.00 | 0.00 | 0.00 | 89 | 1005.3 |
| 20260505183151 | 58 | 248 | 0.0 | 0.0 | 0.00 | 0.00 | 0.00 | 88 | 1005.4 |
| 20260505182151 | 58 | 248 | 0.0 | 0.0 | 0.00 | 0.00 | 0.00 | 89 | 1005.4 |
| 20260505181153 | 58 | 248 | 0.0 | 0.0 | 0.00 | 0.00 | 0.00 | 88 | 1005.4 |
| 20260505180152 | 59 | 248 | 0.0 | 0.0 | 0.00 | 0.00 | 0.00 | 89 | 1005.4 |
| 20260505175153 | 59 | 248 | 0.0 | 0.0 | 0.00 | 0.00 | 0.00 | 88 | 1005.5 |
| 20260505174151 | 59 | 248 | 0.0 | 0.0 | 0.00 | 0.00 | 0.00 | 88 | 1005.5 |
| 20260505173149 | 59 | 248 | 0.0 | 0.0 | 0.00 | 0.00 | 0.00 | 88 | 1005.5 |
| 20260505172638 | 59 | 248 | 0.0 | 0.0 | 0.00 | 0.00 | 0.00 | 88 | 1005.5 |
| 20260505171151 | 59 | 248 | 0.0 | 0.0 | 0.00 | 0.00 | 0.00 | 88 | 1005.5 |
| 20260505170635 | 59 | 248 | 0.0 | 0.0 | 0.00 | 0.00 | 0.00 | 88 | 1005.6 |
| 20260505165149 | 59 | 248 | 0.0 | 0.0 | 0.00 | 0.00 | 0.00 | 87 | 1005.5 |
| 20260505164149 | 59 | 248 | 0.0 | 0.0 | 0.00 | 0.00 | 0.00 | 87 | 1005.6 |
| 20260505163148 | 59 | 248 | 0.0 | 0.0 | 0.01 | 0.00 | 0.00 | 87 | 1005.7 |
| 20260505162148 | 59 | 248 | 0.0 | 0.0 | 0.01 | 0.00 | 0.00 | 88 | 1005.7 |
| 20260505161147 | 58 | 248 | 0.0 | 0.0 | 0.02 | 0.00 | 0.00 | 87 | 1005.8 |
| 20260505160146 | 58 | 248 | 0.0 | 0.0 | 0.02 | 0.00 | 0.00 | 87 | 1005.8 |
| 20260505153146 | 58 | 248 | 0.0 | 0.0 | 0.02 | 0.00 | 0.00 | 86 | 1006.0 |
| 20260505152146 | 59 | 248 | 0.0 | 0.0 | 0.02 | 0.00 | 0.00 | 86 | 1006.1 |
| 20260505151149 | 59 | 248 | 0.0 | 0.0 | 0.02 | 0.00 | 0.00 | 86 | 1006.2 |
| 20260505150149 | 59 | 248 | 0.0 | 0.0 | 0.02 | 0.00 | 0.00 | 85 | 1006.3 |
| 20260505140147 | 59 | 248 | 0.0 | 0.0 | 0.02 | 0.00 | 0.00 | 83 | 1006.5 |
| 20260505130140 | 60 | 248 | 0.9 | 6.1 | 0.02 | 0.00 | 0.00 | 80 | 1006.9 |
| 20260505124144 | 0 | 0.0 | 0.0 | 0.02 | 0.00 | 0.00 | 1006.8 | ||
| 20260505123141 | 60 | 209 | 0.0 | 7.8 | 0.02 | 0.00 | 0.00 | 77 | 1006.8 |
| 20260505122141 | 61 | 288 | 2.6 | 5.2 | 0.01 | 0.00 | 0.00 | 77 | 1006.9 |
| 20260505121141 | 62 | 292 | 0.0 | 2.6 | 0.01 | 0.00 | 0.00 | 72 | 1006.8 |
| 20260505120141 | 63 | 293 | 0.0 | 5.2 | 0.00 | 0.00 | 0.00 | 67 | 1006.8 |
| 20260505115141 | 64 | 293 | 0.0 | 0.0 | 0.00 | 0.00 | 0.00 | 66 | 1006.7 |
| 20260505114617 | 63 | 293 | 0.0 | 0.9 | 0.00 | 0.00 | 0.00 | 64 | 1006.8 |
| 20260505113152 | 63 | 293 | 1.7 | 5.2 | 0.00 | 0.00 | 0.00 | 64 | 1006.8 |
| 20260505112627 | 63 | 293 | 3.5 | 5.2 | 0.00 | 0.00 | 0.00 | 64 | 1006.9 |
| 20260505111139 | 64 | 296 | 0.9 | 3.5 | 0.00 | 0.00 | 0.00 | 64 | 1006.9 |
| 20260505110617 | 64 | 296 | 0.0 | 0.0 | 0.00 | 0.00 | 0.00 | 64 | 1007.0 |
| 20260505102136 | 63 | 296 | 0.0 | 0.0 | 0.00 | 0.00 | 0.00 | 65 | 1007.4 |
| 20260505101135 | 63 | 296 | 0.0 | 0.0 | 0.00 | 0.00 | 0.00 | 65 | 1007.3 |
| 20260505100624 | 63 | 296 | 0.0 | 0.0 | 0.00 | 0.00 | 0.00 | 65 | 1007.4 |
| 20260505095135 | 63 | 296 | 0.0 | 0.0 | 0.00 | 0.00 | 0.00 | 66 | 1007.4 |
| 20260505094138 | 63 | 296 | 0.0 | 0.0 | 0.00 | 0.00 | 0.00 | 65 | 1007.3 |
| 20260505093137 | 64 | 296 | 0.0 | 0.0 | 0.00 | 0.00 | 0.00 | 64 | 1007.4 |
| 20260505092137 | 64 | 296 | 0.0 | 0.0 | 0.00 | 0.00 | 0.00 | 63 | 1007.5 |
| 20260505091138 | 64 | 296 | 0.0 | 0.0 | 0.00 | 0.00 | 0.00 | 62 | 1007.5 |
| 20260505090613 | 64 | 296 | 0.0 | 0.0 | 0.00 | 0.00 | 0.00 | 61 | 1007.6 |
| 20260505085615 | 63 | 296 | 0.0 | 0.0 | 0.00 | 0.00 | 0.00 | 65 | 1007.6 |
| 20260505084136 | 63 | 296 | 0.0 | 0.0 | 0.00 | 0.00 | 0.00 | 70 | 1007.6 |
| 20260505083619 | 62 | 296 | 0.0 | 0.0 | 0.00 | 0.00 | 0.00 | 71 | 1007.6 |
| 20260505082607 | 61 | 296 | 0.0 | 0.0 | 0.00 | 0.00 | 0.00 | 73 | 1007.8 |
| 20260505081136 | 61 | 296 | 0.0 | 0.0 | 0.00 | 0.00 | 0.00 | 75 | 1007.8 |
| 20260505080615 | 60 | 296 | 0.0 | 0.0 | 0.00 | 0.00 | 0.00 | 76 | 1007.9 |
| 20260505075132 | 59 | 296 | 0.0 | 0.0 | 0.00 | 0.00 | 0.00 | 77 | 1008.1 |
| 20260505074132 | 59 | 296 | 0.0 | 0.0 | 0.00 | 0.00 | 0.00 | 79 | 1008.0 |
| 20260505073133 | 58 | 296 | 0.0 | 0.0 | 0.00 | 0.00 | 0.00 | 80 | 1008.1 |
| 20260505072134 | 58 | 296 | 0.0 | 0.0 | 0.00 | 0.00 | 0.00 | 82 | 1008.2 |
| 20260505071135 | 57 | 296 | 0.0 | 0.0 | 0.00 | 0.00 | 0.00 | 83 | 1008.3 |
| 20260505070617 | 57 | 296 | 0.0 | 0.0 | 0.00 | 0.00 | 0.00 | 82 | 1008.5 |
| 20260505065130 | 57 | 296 | 0.0 | 0.0 | 0.00 | 0.00 | 0.00 | 82 | 1008.4 |
| 20260505064131 | 57 | 296 | 0.0 | 0.0 | 0.00 | 0.00 | 0.00 | 83 | 1008.5 |
| 20260505063134 | 56 | 296 | 0.0 | 0.0 | 0.00 | 0.00 | 0.00 | 85 | 1008.5 |
| 20260505062133 | 56 | 296 | 0.0 | 0.0 | 0.00 | 0.00 | 0.00 | 85 | 1008.7 |
| 20260505061129 | 55 | 296 | 0.0 | 0.0 | 0.00 | 0.00 | 0.00 | 86 | 1008.6 |
| 20260505060130 | 54 | 296 | 0.0 | 0.0 | 0.00 | 0.00 | 0.00 | 87 | 1008.7 |
| 20260505055132 | 53 | 296 | 0.0 | 0.0 | 0.00 | 0.00 | 0.00 | 88 | 1008.8 |
| 20260505054132 | 53 | 296 | 0.0 | 0.0 | 0.00 | 0.00 | 0.00 | 88 | 1008.7 |
| 20260505053132 | 53 | 296 | 0.0 | 0.0 | 0.00 | 0.00 | 0.00 | 88 | 1008.6 |
| 20260505052133 | 53 | 296 | 0.0 | 0.0 | 0.00 | 0.00 | 0.00 | 88 | 1008.6 |
| 20260505051131 | 53 | 296 | 0.0 | 0.0 | 0.00 | 0.00 | 0.00 | 88 | 1008.5 |
| 20260505051054 | 53 | 296 | 0.0 | 0.0 | 0.00 | 0.00 | 0.00 | 88 | 1008.6 |
| 20260505041130 | 53 | 296 | 0.0 | 0.0 | 0.00 | 0.00 | 0.00 | 88 | 1008.8 |
| 20260505040129 | 53 | 296 | 0.0 | 0.0 | 0.00 | 0.00 | 0.00 | 88 | 1008.8 |
| 20260505035141 | 52 | 296 | 0.0 | 0.0 | 0.00 | 0.00 | 0.00 | 88 | 1008.9 |
| 20260505034614 | 53 | 296 | 0.0 | 0.0 | 0.00 | 0.00 | 0.00 | 88 | 1008.9 |
| 20260505033126 | 53 | 296 | 0.0 | 0.0 | 0.00 | 0.00 | 0.00 | 88 | 1009.0 |
| 20260505032612 | 53 | 296 | 0.0 | 0.0 | 0.00 | 0.00 | 0.00 | 88 | 1009.0 |
| 20260505031125 | 53 | 296 | 0.0 | 0.0 | 0.00 | 0.00 | 0.00 | 87 | 1009.1 |
| 20260505030125 | 53 | 296 | 0.0 | 0.0 | 0.00 | 0.00 | 0.00 | 87 | 1009.1 |
| 20260505025126 | 53 | 296 | 0.0 | 0.0 | 0.00 | 0.00 | 0.00 | 88 | 1009.3 |